Location: Unspecified
(0.0000°N, 0.0000°E)
Time: 05:11:25
(UTC+00:00)

FENGYUN 1C DEB - Pass Details

Date: 17 February 2026
Orbit: 775 x 802 km, 98.9° (Epoch: 9 April)

Event Time Altitude Azimuth Distance (km) Brightness Sun altitude
Rises 04:35:54 0° 176° (S) 3,199 ? -24.0°
Reaches altitude 10° 04:38:14 10° 180° (S) 2,276 ? -23.4°
Maximum altitude 04:43:07 54° 257° (WSW) 910 ? -22.2°
Enters shadow 04:43:36 52° 280° (W) 934 ? -22.1°
